This is the latest recevied weather packets stored in our database for station/object KC8YYF. If no packets are shown the sender has not sent any weather packets the latest 10 day(s).
| Time | Temp. | Humidity | Pressure | Rain* | Wind** | Luminosity | Snow |
|---|---|---|---|---|---|---|---|
| 1777551770 | 6.11° C | 88% | 1013.8 hPa | 0 mm | - | 40 W/m² | - |
| 1777551468 | 6.11° C | 89% | 1013.5 hPa | 0 mm | - | 37 W/m² | - |
| 1777550862 | 5.56° C | 90% | 1013.6 hPa | 0 mm | - | 40 W/m² | - |
| 1777550254 | 5° C | 90% | 1013.5 hPa | 0 mm | - | 17 W/m² | - |
| 1777548434 | 5° C | 94% | 1013.2 hPa | 0 mm | - | 10 W/m² | - |
| 1777548130 | 5.56° C | 95% | 1013 hPa | 0 mm | - | 11 W/m² | - |
| 1777546614 | 5.56° C | 95% | 1012.6 hPa | 0 mm | - | 0 W/m² | - |
| 1777546310 | 5.56° C | 95% | 1012.6 hPa | 0 mm | - | 1 W/m² | - |
| 1777545401 | 6.67° C | 96% | 1012.7 hPa | 0 mm | - | 0 W/m² | - |
| 1777545098 | 6.67° C | 96% | 1012.3 hPa | 0 mm | - | 0 W/m² | - |
| 1777544795 | 6.67° C | 95% | 1012.3 hPa | 0 mm | - | 0 W/m² | - |
| 1777544490 | 7.22° C | 95% | 1012.2 hPa | 0 mm | - | 0 W/m² | - |
| 1777544187 | 7.22° C | 95% | 1012.2 hPa | 0 mm | - | 0 W/m² | - |
| 1777543885 | 7.22° C | 96% | 1012.2 hPa | 0 mm | - | 0 W/m² | - |
| 1777543581 | 7.22° C | 96% | 1012.1 hPa | 0 mm | - | 0 W/m² | - |
| 1777543277 | 7.22° C | 96% | 1012.2 hPa | 0 mm | - | 0 W/m² | - |
| 1777542973 | 7.22° C | 96% | 1012.2 hPa | 0 mm | - | 0 W/m² | - |
| 1777542669 | 7.22° C | 96% | 1012.1 hPa | 0 mm | - | 0 W/m² | - |
| 1777542366 | 7.22° C | 96% | 1012 hPa | 0 mm | - | 0 W/m² | - |
| 1777542063 | 7.22° C | 95% | 1011.9 hPa | 0 mm | - | 0 W/m² | - |
| 1777541760 | 7.22° C | 96% | 1012 hPa | 0 mm | - | 0 W/m² | - |
| 1777541456 | 7.22° C | 96% | 1012.2 hPa | 0 mm | - | 0 W/m² | - |
| 1777540850 | 7.22° C | 97% | 1012.2 hPa | 0 mm | - | 0 W/m² | - |
| 1777540547 | 7.22° C | 98% | 1012 hPa | 0 mm | - | 0 W/m² | - |
| 1777540243 | 7.22° C | 98% | 1012 hPa | 0 mm | - | 0 W/m² | - |
* Rain latest hour (hover to see other rain measurements)
** Current wind speed in m/s (hover to see current wind gust speed)